Weather History for Sallisaw, OK

Change the Weather History Date:

Thursday, October 18, 2012

  Actual Average Record
Temperature  
Mean Temperature 58 °F -  
Max Temperature 71 °F 73 °F 91 °F (2004)
Min Temperature 46 °F 48 °F 25 °F (1948)
Degree Days  
Heating Degree Days 6    
Growing Degree Days 8 (Base 50)    
Moisture  
Dew Point 33 °F    
Average Humidity 45    
Maximum Humidity 93    
Minimum Humidity 14    
Precipitation  
Precipitation 0.00 in - - ()
Sea Level Pressure  
Sea Level Pressure 29.86 in    
Wind  
Wind Speed 6 mph (West)    
Max Wind Speed 25 mph    
Max Gust Speed 36 mph    
Visibility 10 miles    
Events      
Averages and records for this station are not official NWS values.
T = Trace of Precipitation, MM = Missing Value Source: NWS Daily Summary

Daily Weather History Graph

Daily Weather History Graph

Search for Another Location

Airport:

Trip Planner

Search our weather history database for the weather conditions in past years. The results will help you decide how hot, cold, wet, or windy it might be!

Date:

Astronomy

Oct. 18, 2012 Rise Set
Actual Time 7:28 AM CDT 6:39 PM CDT
Civil Twilight 7:02 AM CDT 7:05 PM CDT
Nautical Twilight 6:33 AM CDT 7:34 PM CDT
Astronomical Twilight 6:03 AM CDT 8:04 PM CDT
Moon 11:03 AM CDT (10/18) 9:21 PM CDT (10/18)
Length of Visible Light 12h 02m
Length of Day
11h 10m
Waxing Crescent, 14% of the Moon is Illuminated
Oct 18
Waxing Crescent
Oct 21
First Quarter
Oct 29
Full
Nov 6
Last Quarter
Nov 13
New

Hourly Weather History & Observations

Time (CDT) Temp. Dew Point Humidity Pressure Visibility Wind Dir Wind Speed Gust Speed Precip Events Conditions
12:15 AM 51.8 °F 46.4 °F 82% 29.81 in 10.0 mi Calm Calm - N/A   Clear
12:35 AM 50.0 °F 46.4 °F 87% 29.82 in 10.0 mi SW 3.5 mph - N/A   Clear
12:55 AM 50.0 °F 44.6 °F 82% 29.82 in 10.0 mi Calm Calm - N/A   Clear
1:15 AM 50.0 °F 44.6 °F 82% 29.82 in 10.0 mi Calm Calm - N/A   Clear
1:35 AM 51.8 °F 44.6 °F 76% 29.83 in 10.0 mi Calm Calm - N/A   Clear
1:55 AM 50.0 °F 42.8 °F 76% 29.84 in 10.0 mi Calm Calm - N/A   Clear
2:15 AM 50.0 °F 42.8 °F 76% 29.84 in 10.0 mi Calm Calm - N/A   Clear
2:35 AM 48.2 °F 42.8 °F 82% 29.83 in 10.0 mi Calm Calm - N/A   Clear
2:55 AM 46.4 °F 42.8 °F 87% 29.83 in 10.0 mi Calm Calm - N/A   Clear
3:15 AM 48.2 °F 44.6 °F 87% 29.84 in 10.0 mi Calm Calm - N/A   Clear
3:35 AM 46.4 °F 44.6 °F 93% 29.84 in 10.0 mi Calm Calm - N/A   Clear
3:55 AM 50.0 °F 44.6 °F 82% 29.84 in 10.0 mi Calm Calm - N/A   Clear
4:15 AM 50.0 °F 44.6 °F 82% 29.84 in 10.0 mi Calm Calm - N/A   Clear
4:35 AM 50.0 °F 44.6 °F 82% 29.84 in 10.0 mi Calm Calm - N/A   Clear
4:55 AM 50.0 °F 42.8 °F 76% 29.84 in 10.0 mi West 3.5 mph - N/A   Clear
5:15 AM 51.8 °F 42.8 °F 71% 29.85 in 10.0 mi Calm Calm - N/A   Clear
5:35 AM 51.8 °F 42.8 °F 71% 29.85 in 10.0 mi Calm Calm - N/A   Clear
5:55 AM 51.8 °F 42.8 °F 71% 29.86 in 10.0 mi West 3.5 mph - N/A   Clear
6:15 AM 51.8 °F 42.8 °F 71% 29.87 in 10.0 mi West 4.6 mph - N/A   Clear
6:35 AM 51.8 °F 41.0 °F 67% 29.87 in 10.0 mi West 5.8 mph - N/A   Clear
6:55 AM 51.8 °F 41.0 °F 67% 29.88 in 10.0 mi West 4.6 mph - N/A   Clear
7:15 AM 51.8 °F 41.0 °F 67% 29.88 in 10.0 mi West 5.8 mph - N/A   Clear
7:55 AM 48.2 °F 39.2 °F 71% 29.90 in 10.0 mi Calm Calm - N/A   Clear
8:15 AM 48.2 °F 41.0 °F 76% 29.90 in 10.0 mi West 3.5 mph - N/A   Clear
8:35 AM 51.8 °F 41.0 °F 67% 29.91 in 10.0 mi Calm Calm - N/A   Clear
8:55 AM 53.6 °F 39.2 °F 58% 29.91 in 10.0 mi West 5.8 mph - N/A   Clear
9:15 AM 53.6 °F 37.4 °F 54% 29.92 in 10.0 mi West 6.9 mph - N/A   Clear
9:35 AM 55.4 °F 35.6 °F 47% 29.93 in 10.0 mi West 6.9 mph - N/A   Clear
9:55 AM 55.4 °F 37.4 °F 51% 29.92 in 10.0 mi WSW 9.2 mph - N/A   Clear
10:15 AM 59.0 °F 33.8 °F 39% 29.92 in 10.0 mi West 10.4 mph - N/A   Clear
10:35 AM 60.8 °F 32.0 °F 34% 29.92 in 10.0 mi NW 11.5 mph 16.1 mph N/A   Clear
10:55 AM 62.6 °F 30.2 °F 30% 29.92 in 10.0 mi WNW 15.0 mph 20.7 mph N/A   Clear
11:15 AM 62.6 °F 28.4 °F 27% 29.93 in 10.0 mi West 15.0 mph - N/A   Clear
11:35 AM 62.6 °F 28.4 °F 27% 29.92 in 10.0 mi West 16.1 mph 23.0 mph N/A   Clear
11:55 AM 64.4 °F 30.2 °F 28% 29.91 in 10.0 mi West 11.5 mph 19.6 mph N/A   Clear
12:15 PM 64.4 °F 26.6 °F 24% 29.91 in 10.0 mi West 19.6 mph 26.5 mph N/A   Clear
12:35 PM 66.2 °F 26.6 °F 23% 29.90 in 10.0 mi WNW 16.1 mph 23.0 mph N/A   Clear
12:55 PM 68.0 °F 26.6 °F 21% 29.90 in 10.0 mi NW 19.6 mph 25.3 mph N/A   Clear
1:15 PM 68.0 °F 26.6 °F 21% 29.89 in 10.0 mi West 13.8 mph 20.7 mph N/A   Clear
1:35 PM 69.8 °F 21.2 °F 16% 29.88 in 10.0 mi WNW 23.0 mph 34.5 mph N/A   Clear
1:55 PM 69.8 °F 19.4 °F 15% 29.87 in 10.0 mi West 23.0 mph 31.1 mph N/A   Clear
2:15 PM 69.8 °F 21.2 °F 16% 29.87 in 10.0 mi West 20.7 mph 32.2 mph N/A   Clear
2:35 PM 69.8 °F 19.4 °F 15% 29.86 in 10.0 mi WNW 21.9 mph 33.4 mph N/A   Clear
2:55 PM 69.8 °F 21.2 °F 16% 29.85 in 10.0 mi West 21.9 mph 27.6 mph N/A   Clear
3:15 PM 71.6 °F 21.2 °F 15% 29.84 in 10.0 mi WNW 18.4 mph 33.4 mph N/A   Clear
3:35 PM 71.6 °F 19.4 °F 14% 29.84 in 10.0 mi West 24.2 mph 34.5 mph N/A   Clear
3:55 PM 71.6 °F 21.2 °F 15% 29.84 in 10.0 mi West 20.7 mph 29.9 mph N/A   Clear
4:15 PM 71.6 °F 19.4 °F 14% 29.83 in 10.0 mi WNW 24.2 mph 35.7 mph N/A   Clear
4:35 PM 69.8 °F 21.2 °F 16% 29.83 in 10.0 mi WNW 25.3 mph 32.2 mph N/A   Clear
5:15 PM 69.8 °F 21.2 °F 16% 29.82 in 10.0 mi West 16.1 mph 23.0 mph N/A   Clear
5:35 PM 69.8 °F 19.4 °F 15% 29.82 in 10.0 mi West 20.7 mph 28.8 mph N/A   Clear
5:55 PM 69.8 °F 21.2 °F 16% 29.82 in 10.0 mi West 13.8 mph 21.9 mph N/A   Clear
6:15 PM 68.0 °F 19.4 °F 16% 29.82 in 10.0 mi West 15.0 mph 23.0 mph N/A   Clear
6:35 PM 68.0 °F 21.2 °F 17% 29.82 in 10.0 mi West 11.5 mph 19.6 mph N/A   Clear
6:55 PM 66.2 °F 21.2 °F 18% 29.82 in 10.0 mi West 12.7 mph - N/A   Clear
7:15 PM 64.4 °F 23.0 °F 21% 29.83 in 10.0 mi West 8.1 mph - N/A   Clear
7:55 PM 62.6 °F 26.6 °F 26% 29.84 in 10.0 mi West 8.1 mph - N/A   Clear
8:35 PM 60.8 °F 28.4 °F 29% 29.85 in 10.0 mi West 6.9 mph - N/A   Scattered Clouds
8:55 PM 60.8 °F 28.4 °F 29% 29.85 in 10.0 mi West 6.9 mph - N/A   Scattered Clouds
9:15 PM 60.8 °F 28.4 °F 29% 29.85 in 10.0 mi West 5.8 mph - N/A   Mostly Cloudy
9:35 PM 59.0 °F 28.4 °F 31% 29.85 in 10.0 mi West 8.1 mph - N/A   Mostly Cloudy
9:55 PM 60.8 °F 28.4 °F 29% 29.84 in 10.0 mi West 5.8 mph - N/A   Mostly Cloudy
10:15 PM 60.8 °F 28.4 °F 29% 29.85 in 10.0 mi West 6.9 mph - N/A   Mostly Cloudy
10:35 PM 60.8 °F 28.4 °F 29% 29.85 in 10.0 mi West 8.1 mph - N/A   Overcast
10:55 PM 60.8 °F 28.4 °F 29% 29.85 in 10.0 mi West 6.9 mph - N/A   Overcast